Regional Weather Roundup
Issued by NWS

Home | Current Version | Previous Version | Graphics & Text | Print | Product List | Glossary On
Versions: 1 2 3 4 5 6 7 8 9 10 11 12 13 14 15 16 17 18 19 20 21 22 23 24 25 26 27 28 29 30 31 32 33 34 35 36 37 38 39 40 41 42 43 44 45 46 47 48 49 50
000
ASUS43 KLOT 062100
RWRIL

ILLINOIS REGIONAL WEATHER ROUNDUP
NATIONAL WEATHER SERVICE CHICAGO/ROMEOVILLE IL
400 PM CDT WED MAY 06 2015

NOTE: "FAIR" INDICATES FEW OR NO CLOUDS BELOW 12,000 FEET WITH NO
SIGNIFICANT WEATHER AND/OR OBSTRUCTIONS TO VISIBILITY.

* THESE STATIONS ARE NOT UNDER NWS QUALITY CONTROL. THEY ALSO MAY NOT
  REPORT WEATHER SUCH AS PRECIPITATION OR FOG.

ILZ001-002-007-009-015-016-024-062200-
NORTHWEST ILLINOIS

CITY           SKY/WX    TMP DP  RH WIND       PRES   REMARKS
MOLINE         MOSUNNY   82  53  36 S15G22    29.99F HX  81
STERLING*      MOSUNNY   82  55  39 SW7       30.03F HX  82
$$

ILZ003-004-008-010-011-017-018-062200-
NORTH CENTRAL ILLINOIS

CITY           SKY/WX    TMP DP  RH WIND       PRES   REMARKS
ROCKFORD       MOSUNNY   81  59  47 SE14      30.07F HX  81
$$

ILZ005-006-012>014-019>023-062200-
NORTHEAST ILLINOIS

CITY           SKY/WX    TMP DP  RH WIND       PRES   REMARKS
CHICAGO-OHARE  PTSUNNY   71  57  61 NE9       30.09F
CHICAGO-MIDWAY PTSUNNY   70  58  65 E12       30.10F HAZE
AURORA         PTSUNNY   80  57  45 S9        30.07F HX  80
WAUKEGAN       MOSUNNY   56  53  90 NE7       30.12F
DUPAGE AIRPORT MOSUNNY   80  60  50 S8        30.07F HX  81
WHEELING       SUNNY     63  54  72 NE8       30.13F HAZE
NORTHERLY ISL    N/A     52  50  93 N8          N/A
$$

LMZ740>746-062200-
SOUTHERN LAKE MICHIGAN

STATION/POSITION SKY/WX   TEMP    WIND        PRES    VSBY  WAVE
                          AIR SEA DIR/SP/G                  HT/PER
                          (F)     (DEG/KT/KT) (MB)    (MI)  (FT/S)
HARRISON CRIB              46     360/  9/ 10   N/A
BURNHAM HARBOR             51     350/  9/ 10   N/A
CALUMET HARBOR             53     360/  7/  8   N/A
BURNS HARBOR               57      70/  9/ 11 1020.3F
MICHIGAN CITY              55      20/ 11/ 12   N/A
MICHIGAN CITY 6N           53 53   60/  8/ 10   N/A           1
ST. JOSEPH                 54 52   30/  8/  8   N/A           1
$$

ILZ025>027-034>036-040-047-049-050-058-095>099-062200-
WEST-CENTRAL ILLINOIS

CITY           SKY/WX    TMP DP  RH WIND       PRES   REMARKS
QUINCY         CLOUDY    78  55  44 S15G25    30.02S
$$

ILZ028>032-037-038-041>044-048-051>054-059>061-062200-
CENTRAL ILLINOIS

CITY           SKY/WX    TMP DP  RH WIND       PRES   REMARKS
DECATUR        PTSUNNY   84  50  30 S15G23    30.06F HX  82
PEORIA         PTSUNNY   85  52  32 S17G23    30.03F HX  83
SPRINGFIELD    MOSUNNY   88  52  29 S20G25    30.04F HX  85
TAYLORVILLE    NOT AVBL
$$

ILZ033-039-045-046-055>057-062-063-062200-
EAST-CENTRAL ILLINOIS

CITY           SKY/WX    TMP DP  RH WIND       PRES   REMARKS
CHAMPAIGN      PTSUNNY   87  47  24 S15G26    30.07F HX  84
MATTOON        PTSUNNY   83  52  34 S12G18    30.07F HX  82
$$

ILZ079-100>102-062200-
SOUTHWEST ILLINOIS

CITY           SKY/WX    TMP DP  RH WIND       PRES   REMARKS
ALTON          MOSUNNY   84  54  34 S17G23    30.04F HX  83
CAHOKIA*       MOSUNNY   85  52  32 S10G29    30.04F HX  83
$$

ILZ064>066-069>071-074>076-080>082-084>086-088>090-092>094-062200-
SOUTH-CENTRAL ILLINOIS

CITY           SKY/WX    TMP DP  RH WIND       PRES   REMARKS
CARBONDALE     MOSUNNY   84  54  35 S15       30.07F HX  83
MARION         MOSUNNY   84  57  39 S14       30.09F HX  83
MT. VERNON     MOSUNNY  N/A N/A N/A S10       30.08F
$$

ILZ067-068-072-073-078-083-087-091-062200-
SOUTHEAST ILLINOIS

CITY           SKY/WX    TMP DP  RH WIND       PRES   REMARKS
LAWRENCEVILLE  SUNNY     86  54  33 SE13      30.09F HX  84
$$

ABBREVIATIONS USED IN REMARKS
   TC - TEMPERATURE IN CELSIUS
  WCI - WIND CHILL INDEX
   HX - HEAT INDEX
  VSB - VISIBILITY
$$




USA.gov is the U.S. government's official web portal to all federal, state and local government web resources and services.